When you browse on this site, cookies collect data to enhance your experience and personalize the content and advertising you see.
Visit our Privacy Policy to learn more. By continuing to use the site, you agree to this use of cookies and data.
  • In United Kingdom
  • List of Countries
  • For 7 days
  • Water Temperature
  • Satellite Maps
  • Weather Map
  • Weather Widgets
  • user-avatar
    Login

    Hourly Weather Salzburg

    Today, 21 February, Thursday

    Time Temperature Precipitation Wind Pressure Humidity
    00:00 -2°C° 0 mm 1 mps 629 mmHg 88%
    01:00 -3°C° 0 mm 1 mps 629 mmHg 87%
    02:00 -3°C° 0 mm 1 mps 629 mmHg 87%
    03:00 -3°C° 0 mm 1 mps 629 mmHg 86%
    04:00 -2°C° 0 mm 1 mps 629 mmHg 86%
    05:00 -2°C° 0 mm 1 mps 629 mmHg 86%
    06:00 -2°C° 0 mm 1 mps 629 mmHg 87%
    07:00 -2°C° 0 mm 1 mps 630 mmHg 87%
    08:00 -1°C° 0 mm 1 mps 630 mmHg 87%
    09:00 0°C° 0 mm 1 mps 631 mmHg 87%
    10:00 +1°C° 0 mm 0 mps 631 mmHg 87%
    11:00 +2°C° 0 mm 1 mps 631 mmHg 87%
    12:00 +3°C° 0 mm 1 mps 631 mmHg 86%
    13:00 +3°C° 0 mm 1 mps 631 mmHg 86%
    14:00 +3°C° 0 mm 1 mps 631 mmHg 88%
    15:00 +3°C° 0 mm 1 mps 630 mmHg 90%
    16:00 +2°C° 0 mm 1 mps 630 mmHg 93%
    17:00 +1°C° 0 mm 1 mps 630 mmHg 93%
    18:00 0°C° 0 mm 1 mps 630 mmHg 93%
    19:00 -1°C° 0 mm 1 mps 630 mmHg 93%
    20:00 -1°C° 0.2 mm 1 mps 630 mmHg 92%
    21:00 -1°C° 0.2 mm 1 mps 630 mmHg 91%
    22:00 -1°C° 0.2 mm 1 mps 630 mmHg 91%
    23:00 -1°C° 0.5 mm 1 mps 631 mmHg 91%

    Tomorrow, 22 February, Friday

    Time Temperature Precipitation Wind Pressure Humidity
    00:00 -1°C° 0.5 mm 1 mps 631 mmHg 92%
    01:00 -1°C° 0.5 mm 1 mps 631 mmHg 93%
    02:00 -1°C° 0.7 mm 1 mps 631 mmHg 93%
    03:00 -1°C° 0.7 mm 1 mps 630 mmHg 93%
    04:00 -1°C° 0.7 mm 1 mps 630 mmHg 93%
    05:00 -3°C° 1.9 mm 2 mps 630 mmHg 93%
    06:00 -3°C° 1.9 mm 2 mps 630 mmHg 93%
    07:00 -3°C° 1.9 mm 2 mps 630 mmHg 94%
    08:00 -2°C° 1.7 mm 2 mps 630 mmHg 94%
    09:00 -2°C° 1.7 mm 2 mps 631 mmHg 94%
    10:00 -2°C° 1.7 mm 2 mps 631 mmHg 95%
    11:00 -2°C° 1.1 mm 2 mps 631 mmHg 95%
    12:00 -2°C° 1.1 mm 2 mps 631 mmHg 96%
    13:00 -1°C° 1.1 mm 2 mps 631 mmHg 96%
    14:00 -1°C° 0.7 mm 2 mps 631 mmHg 96%
    15:00 -1°C° 0.7 mm 2 mps 631 mmHg 96%
    16:00 -1°C° 0.7 mm 2 mps 631 mmHg 96%
    17:00 0°C° 0.4 mm 1 mps 632 mmHg 97%
    18:00 0°C° 0.4 mm 1 mps 632 mmHg 97%
    19:00 0°C° 0.4 mm 1 mps 633 mmHg 97%
    20:00 -1°C° 0.5 mm 1 mps 633 mmHg 97%
    21:00 -1°C° 0.5 mm 1 mps 634 mmHg 97%
    22:00 -1°C° 0.5 mm 1 mps 634 mmHg 97%
    23:00 -1°C° 0.1 mm 1 mps 634 mmHg 97%

    Day after tomorrow, 23 February, Saturday

    Time Temperature Precipitation Wind Pressure Humidity
    00:00 -2°C° 0.1 mm 1 mps 634 mmHg 97%
    01:00 -3°C° 0.1 mm 0 mps 634 mmHg 97%
    02:00 -3°C° 0.1 mm 0 mps 634 mmHg 97%
    03:00 -3°C° 0.1 mm 0 mps 634 mmHg 97%
    04:00 -4°C° 0.1 mm 0 mps 634 mmHg 97%
    05:00 -4°C° 0 mm 0 mps 634 mmHg 96%
    06:00 -4°C° 0 mm 0 mps 634 mmHg 96%
    07:00 -5°C° 0 mm 0 mps 634 mmHg 95%
    08:00 -4°C° 0 mm 0 mps 634 mmHg 93%
    09:00 -2°C° 0 mm 1 mps 634 mmHg 92%
    10:00 -1°C° 0 mm 1 mps 635 mmHg 90%
    11:00 0°C° 0 mm 1 mps 635 mmHg 88%
    12:00 0°C° 0 mm 1 mps 635 mmHg 87%
    13:00 0°C° 0 mm 1 mps 635 mmHg 86%
    14:00 0°C° 0 mm 1 mps 634 mmHg 84%
    15:00 0°C° 0 mm 1 mps 634 mmHg 82%
    16:00 0°C° 0 mm 1 mps 634 mmHg 80%
    17:00 -2°C° 0 mm 1 mps 634 mmHg 81%
    18:00 -4°C° 0 mm 1 mps 633 mmHg 82%
    19:00 -6°C° 0 mm 0 mps 633 mmHg 82%
    20:00 -6°C° 0 mm 0 mps 633 mmHg 78%
    21:00 -7°C° 0 mm 1 mps 633 mmHg 74%
    22:00 -7°C° 0 mm 1 mps 633 mmHg 70%
    23:00 -7°C° 0 mm 1 mps 633 mmHg 67%

    24 February, Sunday

    Time Temperature Precipitation Wind Pressure Humidity
    00:00 -7°C° 0 mm 1 mps 633 mmHg 63%
    01:00 -7°C° 0 mm 1 mps 633 mmHg 60%
    02:00 -7°C° 0 mm 1 mps 633 mmHg 59%
    03:00 -6°C° 0 mm 1 mps 633 mmHg 57%
    04:00 -6°C° 0 mm 1 mps 633 mmHg 56%
    05:00 -6°C° 0 mm 1 mps 633 mmHg 55%
    06:00 -6°C° 0 mm 1 mps 633 mmHg 54%
    07:00 -6°C° 0 mm 1 mps 633 mmHg 54%
    08:00 -3°C° 0 mm 1 mps 634 mmHg 60%
    09:00 -2°C° 0 mm 0 mps 634 mmHg 66%
    10:00 0°C° 0 mm 0 mps 635 mmHg 72%
    11:00 +1°C° 0 mm 0 mps 635 mmHg 75%
    12:00 +2°C° 0 mm 1 mps 635 mmHg 77%
    13:00 +3°C° 0 mm 1 mps 635 mmHg 79%
    14:00 +2°C° 0 mm 1 mps 635 mmHg 82%
    15:00 +2°C° 0 mm 1 mps 634 mmHg 84%
    16:00 +1°C° 0 mm 0 mps 634 mmHg 86%
    17:00 0°C° 0 mm 0 mps 634 mmHg 83%
    18:00 -1°C° 0 mm 1 mps 634 mmHg 80%
    19:00 -2°C° 0 mm 1 mps 634 mmHg 78%
    20:00 -2°C° 0 mm 1 mps 634 mmHg 77%
    21:00 -3°C° 0 mm 1 mps 634 mmHg 77%
    22:00 -3°C° 0 mm 1 mps 634 mmHg 77%
    23:00 -3°C° 0 mm 1 mps 634 mmHg 77%

    25 February, Monday

    Time Temperature Precipitation Wind Pressure Humidity
    00:00 -3°C° 0 mm 1 mps 634 mmHg 78%
    01:00 -3°C° 0 mm 1 mps 633 mmHg 78%
    02:00 -3°C° 0 mm 1 mps 633 mmHg 78%
    03:00 -3°C° 0 mm 1 mps 633 mmHg 79%
    04:00 -4°C° 0 mm 1 mps 633 mmHg 79%
    05:00 -4°C° 0 mm 1 mps 633 mmHg 80%
    06:00 -4°C° 0 mm 1 mps 633 mmHg 80%
    07:00 -4°C° 0 mm 1 mps 633 mmHg 81%
    08:00 -2°C° 0 mm 1 mps 634 mmHg 81%
    09:00 -1°C° 0 mm 1 mps 634 mmHg 82%
    10:00 +1°C° 0 mm 1 mps 635 mmHg 82%
    11:00 +1°C° 0 mm 1 mps 635 mmHg 83%
    12:00 +2°C° 0 mm 1 mps 635 mmHg 84%
    13:00 +2°C° 0 mm 1 mps 635 mmHg 85%
    14:00 +2°C° 0 mm 1 mps 635 mmHg 86%
    15:00 +2°C° 0 mm 1 mps 634 mmHg 87%
    16:00 +2°C° 0 mm 1 mps 634 mmHg 88%
    17:00 0°C° 0 mm 1 mps 634 mmHg 89%
    18:00 -2°C° 0 mm 1 mps 634 mmHg 90%
    19:00 -4°C° 0 mm 0 mps 634 mmHg 91%
    20:00 -3°C° 0 mm 1 mps 634 mmHg 88%
    21:00 -3°C° 0 mm 1 mps 634 mmHg 85%
    22:00 -4°C° 0 mm 1 mps 634 mmHg 82%
    23:00 -4°C° 0 mm 1 mps 634 mmHg 78%

    26 February, Tuesday

    Time Temperature Precipitation Wind Pressure Humidity
    00:00 -4°C° 0 mm 1 mps 634 mmHg 74%
    01:00 -4°C° 0 mm 1 mps 633 mmHg 70%
    02:00 -3°C° 0 mm 1 mps 633 mmHg 66%
    03:00 -5°C° 0 mm 2 mps 633 mmHg 62%
    04:00 -5°C° 0 mm 2 mps 633 mmHg 59%
    05:00 -5°C° 0 mm 2 mps 633 mmHg 57%
    06:00 -5°C° 0 mm 2 mps 632 mmHg 56%
    07:00 -4°C° 0 mm 2 mps 632 mmHg 54%
    08:00 0°C° 0 mm 1 mps 633 mmHg 61%
    09:00 +2°C° 0 mm 1 mps 634 mmHg 68%
    10:00 +3°C° 0 mm 0 mps 634 mmHg 74%
    11:00 +4°C° 0 mm 1 mps 634 mmHg 75%
    12:00 +5°C° 0 mm 1 mps 634 mmHg 75%
    13:00 +6°C° 0 mm 1 mps 634 mmHg 75%
    14:00 +5°C° 0 mm 1 mps 633 mmHg 78%
    15:00 +5°C° 0 mm 1 mps 633 mmHg 80%
    16:00 +4°C° 0 mm 1 mps 632 mmHg 82%
    17:00 +3°C° 0 mm 1 mps 632 mmHg 80%
    18:00 +1°C° 0 mm 1 mps 632 mmHg 77%
    19:00 -1°C° 0 mm 1 mps 631 mmHg 75%
    20:00 -1°C° 0 mm 1 mps 631 mmHg 73%
    21:00 -1°C° 0 mm 1 mps 631 mmHg 70%
    22:00 -1°C° 0 mm 1 mps 631 mmHg 68%
    23:00 -1°C° 0 mm 1 mps 631 mmHg 66%
    Show more